sat.trackr.live / text

‹ back to catalog

STARLINK-32708

NORAD 62495 · 2025-003J

PAYLOAD ACTIVE UNKNOWN

§ Identity

Operator
Country
US
Launch date
2025-01-06
Launch site
AFETR
Launch vehicle
Mass (kg)
RCS (m²)

Purposes: comms

External: N2YO · Heavens-Above · Gunter

§ Orbital elements

Epoch: 2026-05-25T05:12:10.889280Z

Period
94.27 min
Inclination
42.9966°
Eccentricity
0.0000402
Mean motion
15.27576010 rev/d
Perigee alt
482.8 km
Apogee alt
483.3 km
Semi-major
6,861.2 km
B*
9.8739e-4
RAAN
216.9381°
Arg perigee
96.1084°
Mean anomaly
263.9814°
Rev number
7,825

§ Raw data

STARLINK-327081 62495U 25003J   26145.21679270  .00027005  00000+0  98739-3 0  99902 62495  42.9966 216.9381 0000402  96.1084 263.9814 15.27576010 78257

JSON: /api/v1/satellites/62495 · /tle

For live sub-satellite position, see the globe view (requires WebGL).

§ Visibility from observer

Set your observer location to see the next 7 days of passes ≥ 10°. The values pass through the URL so the page stays shareable.

No JS? Fill the form by hand. The geolocation button needs JavaScript.